User: anonymous   Login
Location: Felsheim
(48.7267°N, 10.7386°E)
Time: 10:14:06
(UTC+00:00)
Language:

Thor Agena Rocket - Orbit

View from above orbital plane
View from above orbital plane
View from above satellite
View from above satellite

Ground track
Ground track

The orbit data is extracted from the following two-line orbital elements,

1 00733U 64002A   21209.72693721  .00000027  00000-0  27263-4 0  9999
2 00733  98.9812 122.3006 0034557 126.3311 234.1070 14.32448332996989
Epoch (UTC): 28 July 2021 17:26:47
Eccentricity: 0.0034557
inclination: 98.9812°
perigee height: 759 km
apogee height: 808 km
right ascension of ascending node: 122.3006°
argument of perigee: 126.3311°
revolutions per day: 14.32448332
mean anomaly at epoch: 234.1070°
orbit number at epoch: 99698

The dashed part of the orbit path shows where the satellite is in the earth's shadow,  

DLR